Date,TemperatureHighF,TemperatureAvgF,TemperatureLowF,DewpointHighF,DewpointAvgF,DewpointLowF,HumidityHigh,HumidityAvg,HumidityLow,PressureMaxIn,PressureMinIn,WindSpeedMaxMPH,WindSpeedAvgMPH,GustSpeedMaxMPH,PrecipitationSumIn
2013-10-1,76,67,63,63,62,56,95,83,50,29.92,29.83,10,2,13,0.00
2013-10-2,72,66,63,62,60,58,90,82,67,29.96,29.84,10,3,15,0.00
2013-10-3,72,65,60,62,60,57,94,84,70,29.89,29.79,12,2,17,0.00
2013-10-4,84,70,58,63,54,26,93,63,16,29.99,29.85,9,2,15,0.00
2013-10-5,91,76,65,54,30,23,67,20,9,30.08,29.97,13,3,19,0.00
2013-10-6,91,75,61,38,28,18,38,20,8,30.04,29.90,10,2,14,0.00
2013-10-7,82,67,59,62,52,37,89,59,36,29.93,29.85,9,2,16,0.00
2013-10-8,71,63,57,58,56,54,94,79,61,29.90,29.79,13,2,14,0.00
2013-10-9,67,60,54,56,52,46,90,74,55,29.79,29.68,13,3,18,0.07
2013-10-10,66,58,49,54,50,47,95,78,59,29.98,29.77,8,2,12,0.01
2013-10-11,71,60,52,58,53,47,94,80,62,30.02,29.91,10,2,16,0.00
2013-10-12,72,61,53,61,56,52,98,85,66,29.95,29.85,13,2,17,0.00
2013-10-13,67,61,55,57,55,52,97,82,66,29.99,29.90,9,2,12,0.00
2013-10-14,86,66,52,58,52,39,98,69,19,29.99,29.85,6,1,10,0.00
2013-10-15,86,69,55,50,43,31,76,43,14,29.92,29.82,8,2,12,0.00
2013-10-16,85,72,60,44,33,24,52,26,13,30.03,29.92,10,3,13,0.00
2013-10-17,79,66,54,57,42,33,68,43,22,30.00,29.87,12,2,17,0.00
2013-10-18,78,64,53,63,55,49,88,72,53,29.98,29.88,7,2,13,0.00
2013-10-19,82,65,53,63,54,42,94,72,25,29.98,29.90,7,1,12,0.00
2013-10-20,69,60,54,60,56,52,98,86,70,29.96,29.86,11,2,18,0.00
2013-10-21,71,60,53,59,56,52,98,85,64,29.96,29.87,10,2,14,0.00
2013-10-22,70,60,53,59,56,52,98,87,69,29.97,29.87,12,3,16,0.00
2013-10-23,66,61,55,57,56,53,97,83,70,29.94,29.88,11,2,14,0.00
2013-10-24,70,62,55,58,56,53,93,81,66,30.02,29.92,9,2,17,0.00
2013-10-25,70,62,54,59,56,53,96,84,67,30.09,29.97,10,2,15,0.00
2013-10-26,73,61,54,63,58,53,98,89,68,30.06,29.92,6,1,10,0.00
2013-10-27,69,60,53,61,57,52,98,89,73,29.94,29.78,12,2,17,0.00
2013-10-28,66,60,55,57,53,50,94,80,63,29.90,29.79,10,3,17,0.04
2013-10-29,65,58,51,55,52,50,97,82,62,29.98,29.90,13,2,16,0.10
2013-10-30,69,58,50,56,51,47,98,80,54,30.04,29.95,8,2,16,0.00
2013-10-31,78,61,49,57,47,38,90,64,36,30.06,29.94,8,1,11,0.00